STARLINK-4447, 53472

Orbit data source: Space-Track

STARLINK-4447, 53472 is a payload satellite owned by SpaceX/Seattle (US) in SSO that was launched on Fri, 12 Aug 2022 UTC via an FALCON 9 launch vehicle from the Air Force Western Test Range (AFWTR). Payload-class satellites include a variety of spacecraft equipped with specific instruments for various scientific and technological missions. These include communications satellites like Starlink; space stations such as the ISS; scientific satellites like the Hubble; Earth observation satellites from companies like Planet Labs, Umbra, and HawkEye 360; GPS; miniature CubeSats for education and research; and military/defense satellites.

Loading next visibility...
Identifier
53472, 2022-099H
Orbit
SSO
Country
Flag of USUS
Related business
Manufacturer
SpaceX/Seattle
Mission
Operational Commercial Communications
Bus & Motor
STARLINK, Unknown motor
Mass
300 kg wet, ~275 kg dry
Launch date (UTC)
2022-08-12 (3 years ago)
Launch vehicle
FALCON 9
Launch site
Air Force Western Test Range (AFWTR)
Object type
Payload
Rocket body
Debris
Shape & HBR
Box + 1 Pan, 10.1 m
Radar Cross Section
13.562 m², Large (>1 m²)

Expand to show TLE details & history
Last TLE update: 5 hours ago

TLE from 5 hours ago
0 STARLINK-4447
1 53472U 22099H   25293.61512942  .00000816  00000-0  68085-4 0  9990
2 53472  97.6035  53.0823 0002078  89.7678 270.3784 15.01266966174966
Epoch: 2025-10-20T14:45Z
TLE epoch observation values (Epoch: 2025-10-20T14:45:47.181Z)
Latitude
-0.0001°
Longitude
162.32082°
Altitude
566.038 km
Speed
7.578 km/s
True Right ascension
03h 32m 19s
True Declination
0° 00' 00"
Sunlit
Object was in full shadow at epoch
Visualization orbit readout
Latitude
Unknown
Longitude
Unknown
Altitude
Unknown
Speed
Unknown
Apparent Right ascension
Unknown
Apparent Declination
Unknown
Sunlit
N/A
Visualization observer readout
Local Sidereal Time
15:04:37
Azimuth
Unknown
Elevation
Unknown
Doppler factor
Unknown
Orbital elements
Apogee altitude
561.429 km
Perigee altitude
558.546 km
Semi-major axis
6,938.125 km
Eccentricity
0.00021
Inclination
97.6035°
RAAN
53.0823°
Arg. of periapsis
89.7678°
True anomaly
270.35459°
Mean anomaly
270.3784°
Eccentric anomaly
270.36649°
Mean motion
3.75561 °/min
Orbital period
95.86 mins
BSTAR
0.000068085
Loading maneuver chart data...
Computing Atmospheric mass density...
Loading historical data...
Loading historical data...
Loading historical data...
Loading historical data...
Loading historical data...
Loading historical data...
Loading historical data...

Documentation

Showing up to 5 results
|